Regional Weather Roundup
Issued by NWS

Home | Current Version | Previous Version | Graphics & Text | Print | Product List | Glossary On
Versions: 1 2 3 4 5 6 7 8 9 10 11 12 13 14 15 16 17 18 19 20 21 22 23 24 25 26 27 28 29 30 31 32 33 34 35 36 37 38 39 40 41 42 43 44 45 46 47 48 49 50
000
ASUS43 KBIS 270859
RWRND

NORTH DAKOTA REGIONAL WEATHER ROUNDUP
NATIONAL WEATHER SERVICE BISMARCK ND
300 AM CST SAT DEC 27 2014

NOTE: "FAIR" INDICATES FEW OR NO CLOUDS BELOW 12,000 FEET WITH NO
SIGNIFICANT WEATHER AND/OR OBSTRUCTIONS TO VISIBILITY.


NDZ001>003-009>011-017-271000-
NORTHWEST NORTH DAKOTA

CITY           SKY/WX    TMP DP  RH WIND       PRES   REMARKS
WILLISTON      PTCLDY    17  13  84 W10       30.09R WCI   5
MINOT          CLOUDY    19  14  81 S8        30.04F WCI   9
MINOT AFB      CLOUDY    18  16  93 S6        30.05F WCI   9
$$

NDZ018>021-031>035-040>046-271000-
SOUTHWEST NORTH DAKOTA

CITY           SKY/WX    TMP DP  RH WIND       PRES   REMARKS
BISMARCK       PTCLDY     0  -3  87 SE3       30.14F
DICKINSON      CLOUDY    22  17  81 W12       30.05S WCI  10
GARRISON         N/A     20  16  84 SW9       30.06F WCI   9
HETTINGER ARPT CLOUDY    17  12  80 W7        30.09F WCI   8
$$

NDZ004>008-012>016-024-026-027-054-271000-
NORTHEAST NORTH DAKOTA

CITY           SKY/WX    TMP DP  RH WIND       PRES   REMARKS
GRAND FORKS    CLOUDY     2  -1  88 W5        30.20S WCI  -8
DEVILS LAKE    CLOUDY     7   0  72 SW7       30.11R WCI  -5
$$

NDZ022-023-025-028>030-036>039-047>053-271000-
SOUTHEAST NORTH DAKOTA

CITY           SKY/WX    TMP DP  RH WIND       PRES   REMARKS
FARGO          CLEAR      4   0  83 NW7       30.20S WCI  -8
$$




USA.gov is the U.S. government's official web portal to all federal, state and local government web resources and services.